User: anonymous   Login
Location: Cabri�res
(43.7840°N, 5.4986°E)
Time: 15:17:58
(UTC+00:00)
Language:

ATLAS CENTAUR R/B - Orbit

View from above orbital plane
View from above orbital plane
View from above satellite
View from above satellite

Ground track
Ground track

The orbit data is extracted from the following two-line orbital elements,

1 38770U 12048N   21159.94024836 0.00001400  00000-0  94196-4 0    05
2 38770  64.6490 116.1843 0143332  15.0251 344.9749 14.98381320    09
Epoch (UTC): 08 June 2021 22:33:57
Eccentricity: 0.0143332
inclination: 64.6490°
perigee height: 472 km
apogee height: 671 km
right ascension of ascending node: 116.1843°
argument of perigee: 15.0251°
revolutions per day: 14.98381320
mean anomaly at epoch: 344.9749°
orbit number at epoch: 0

The dashed part of the orbit path shows where the satellite is in the earth's shadow,  

DLR